Hourly Data Report for October 06, 2013

All times are specified in Local Standard Time (LST). Add 1 hour to adjust for Daylight Saving Time where and when it is observed.

IQALUIT CLIMATE
NUNAVUT

63°44'50.000" N
68°32'40.000" W
33.50 m
2402592
71321
XFB

Download Data

Hourly Data (October 2013)
Hourly Data Report for October 6, 2013
Temp Definition
°C
Dew Point Temp Definition
°C
Rel Hum Definition
%
Wind Dir Definition
10's deg

Wind Spd Definition
km/h
Visibility Definition
km
Stn Press Definition
kPa
Hmdx Definition


Wind Chill Definition


Weather Definition


TIME
00:00 -4.0 -7.3 78 36 19   101.74   -10 LegendNANA
01:00 -4.3 -7.6 78 2 19   101.76   -10 LegendNANA
02:00 -4.3 -7.7 77 3 19   101.82   -10 LegendNANA
03:00 -4.6 -7.7 79 5 19   101.86   -11 LegendNANA
04:00 -4.8 -8.1 78 4 19   101.90   -11 LegendNANA
05:00 -4.8 -7.9 79 4 17   101.93   -11 LegendNANA
06:00 -4.9 -8.0 79 5 13   101.96   -10 LegendNANA
07:00 -4.7 -7.8 79 6 11   101.97   -9 LegendNANA
08:00 -4.1 -7.3 78 2 13   102.00   -9 LegendNANA
09:00 -3.8 -7.2 77 3 7   101.99   -7 LegendNANA
10:00 -3.4 -7.1 76 1 4   101.98   -5 LegendNANA
11:00 -3.2 -6.9 76 36 6   101.98   -6 LegendNANA
12:00 -3.0 -7.0 74 34 4   101.97   -5 LegendNANA
13:00 -2.6 -7.0 72 35 2   101.98   -3 LegendNANA
14:00 -1.5 -6.3 70 4 2   101.96   -2 LegendNANA
15:00 -2.0 -6.2 73 26 7   101.95   -5 LegendNANA
16:00 -2.5 -6.0 77 25 11   101.96   -7 LegendNANA
17:00 -3.1 -6.1 80 26 6   101.98   -6 LegendNANA
18:00 -4.2 -6.0 87 36 2   101.99   -5 LegendNANA
19:00 -4.7 -6.1 90 5 2   101.99   -6 LegendNANA
20:00 -3.9 -5.8 87 10 9   101.96   -8 LegendNANA
21:00 -3.4 -5.3 87 10 7   101.92   -6 LegendNANA
22:00 -3.4 -5.6 85 11 9   101.87   -7 LegendNANA
23:00 -3.3 -5.7 83 11 9   101.85   -7 LegendNANA

Notes on Data Quality.

Legend

  • E = Estimated
  • M = Missing
  • NA = Not Available
  • ‡ = Partner data that is not subject to review by the National Climate Archives
Date modified: